| time (UTC) | temp C | wind direction | speed KPH | gust KPH | rain 1hr cm | rain 24hr cm | rain mn cm | humidity % | barometer mb |
| 20260510140036 | 20 | 232 | 1.6 | 6.4 | 0.00 | 0.00 | 0.00 | 65 | 1008.5 |
| 20260510134506 | 20 | 131 | 3.2 | 6.4 | 0.00 | 0.00 | 0.00 | 65 | 1008.3 |
| 20260510133037 | 21 | 221 | 0.0 | 3.2 | 0.00 | 0.00 | 0.00 | 63 | 1008.6 |
| 20260510131558 | 19 | 104 | 0.0 | 1.6 | 0.00 | 0.00 | 0.00 | 69 | 1008.4 |
| 20260510130018 | 18 | 353 | 0.0 | 0.0 | 0.00 | 0.00 | 0.00 | 69 | 1008.4 |
| 20260510124540 | 17 | 353 | 0.0 | 0.0 | 0.00 | 0.00 | 0.00 | 74 | 1008.2 |
| 20260510123002 | 14 | 353 | 0.0 | 0.0 | 0.00 | 0.00 | 0.00 | 81 | 1008.0 |
| 20260510121538 | 13 | 353 | 0.0 | 1.6 | 0.00 | 0.00 | 0.00 | 81 | 1008.0 |
| 20260510120058 | 13 | 75 | 0.0 | 0.0 | 0.00 | 0.00 | 0.00 | 83 | 1007.7 |
| 20260510114525 | 12 | 75 | 0.0 | 1.6 | 0.00 | 0.00 | 0.00 | 83 | 1007.5 |
| 20260510113100 | 12 | 90 | 0.0 | 1.6 | 0.00 | 0.00 | 0.00 | 83 | 1007.3 |
| 20260510111518 | 12 | 97 | 0.0 | 0.0 | 0.00 | 0.00 | 0.00 | 83 | 1007.1 |
| 20260510110046 | 12 | 112 | 0.0 | 0.0 | 0.00 | 0.00 | 0.00 | 84 | 1006.9 |
| 20260510104514 | 11 | 112 | 0.0 | 0.0 | 0.00 | 0.00 | 0.00 | 84 | 1006.8 |
| 20260510103041 | 11 | 113 | 0.0 | 1.6 | 0.00 | 0.00 | 0.00 | 85 | 1006.7 |
| 20260510101503 | 11 | 155 | 0.0 | 0.0 | 0.00 | 0.00 | 0.00 | 85 | 1006.3 |
| 20260510100033 | 11 | 167 | 0.0 | 0.0 | 0.00 | 0.00 | 0.00 | 86 | 1006.3 |
| 20260510094605 | 11 | 167 | 0.0 | 0.0 | 0.00 | 0.00 | 0.00 | 85 | 1006.2 |
| 20260510093026 | 12 | 39 | 0.0 | 1.6 | 0.00 | 0.00 | 0.00 | 82 | 1006.0 |
| 20260510091548 | 12 | 39 | 0.0 | 1.6 | 0.00 | 0.00 | 0.00 | 81 | 1005.9 |
| 20260510090012 | 12 | 39 | 0.0 | 1.6 | 0.00 | 0.00 | 0.00 | 80 | 1005.6 |
| 20260510084541 | 12 | 37 | 0.0 | 1.6 | 0.00 | 0.00 | 0.00 | 80 | 1005.5 |
| 20260510083002 | 12 | 30 | 0.0 | 1.6 | 0.00 | 0.00 | 0.00 | 78 | 1005.5 |
| 20260510081523 | 13 | 343 | 0.0 | 3.2 | 0.00 | 0.00 | 0.00 | 74 | 1005.5 |
| 20260510074523 | 14 | 133 | 0.0 | 4.8 | 0.00 | 0.00 | 0.00 | 71 | 1005.1 |
| 20260510073113 | 14 | 214 | 0.0 | 1.6 | 0.00 | 0.00 | 0.00 | 71 | 1005.0 |
| 20260510071523 | 14 | 257 | 0.0 | 1.6 | 0.00 | 0.00 | 0.00 | 73 | 1005.1 |
| 20260510070057 | 14 | 227 | 0.0 | 3.2 | 0.00 | 0.00 | 0.00 | 72 | 1005.0 |
| 20260510064537 | 14 | 245 | 0.0 | 3.2 | 0.00 | 0.00 | 0.00 | 73 | 1005.0 |
| 20260510063048 | 14 | 261 | 0.0 | 1.6 | 0.00 | 0.00 | 0.00 | 72 | 1005.0 |
| 20260510061510 | 14 | 223 | 0.0 | 1.6 | 0.00 | 0.00 | 0.00 | 70 | 1005.2 |
| 20260510060033 | 15 | 238 | 1.6 | 4.8 | 0.00 | 0.00 | 0.00 | 68 | 1005.2 |
| 20260510054605 | 16 | 217 | 0.0 | 3.2 | 0.00 | 0.00 | 0.00 | 66 | 1005.2 |
| 20260510053039 | 16 | 243 | 0.0 | 1.6 | 0.00 | 0.00 | 0.00 | 65 | 1005.0 |
| 20260510051604 | 16 | 205 | 0.0 | 6.4 | 0.00 | 0.00 | 0.00 | 65 | 1005.2 |
| 20260510050029 | 16 | 205 | 1.6 | 6.4 | 0.00 | 0.00 | 0.00 | 66 | 1005.2 |
| 20260510044556 | 16 | 155 | 0.0 | 1.6 | 0.00 | 0.00 | 0.00 | 64 | 1005.3 |
| 20260510043026 | 16 | 203 | 0.0 | 6.4 | 0.00 | 0.00 | 0.00 | 62 | 1005.3 |
| 20260510041557 | 16 | 157 | 0.0 | 3.2 | 0.00 | 0.00 | 0.00 | 63 | 1005.2 |
| 20260510040023 | 16 | 228 | 1.6 | 8.0 | 0.00 | 0.00 | 0.00 | 63 | 1005.2 |
| 20260510034607 | 16 | 216 | 0.0 | 8.0 | 0.00 | 0.00 | 0.00 | 65 | 1005.2 |
| 20260510033016 | 16 | 120 | 0.0 | 1.6 | 0.00 | 0.00 | 0.00 | 65 | 1005.0 |
| 20260510031549 | 16 | 153 | 0.0 | 3.2 | 0.00 | 0.00 | 0.00 | 64 | 1004.9 |
| 20260510030019 | 17 | 292 | 0.0 | 0.0 | 0.00 | 0.00 | 0.00 | 59 | 1004.7 |
| 20260510024550 | 17 | 292 | 0.0 | 1.6 | 0.00 | 0.00 | 0.00 | 56 | 1004.7 |
| 20260510023020 | 18 | 262 | 0.0 | 1.6 | 0.00 | 0.00 | 0.00 | 56 | 1004.6 |
| 20260510021601 | 18 | 303 | 0.0 | 3.2 | 0.00 | 0.00 | 0.00 | 55 | 1004.4 |
| 20260510020028 | 18 | 279 | 0.0 | 1.6 | 0.00 | 0.00 | 0.00 | 55 | 1004.3 |
| 20260510014552 | 18 | 253 | 0.0 | 6.4 | 0.00 | 0.00 | 0.00 | 54 | 1004.0 |
| 20260510013014 | 18 | 322 | 0.0 | 1.6 | 0.00 | 0.00 | 0.00 | 53 | 1003.5 |
| 20260510011547 | 18 | 314 | 0.0 | 1.6 | 0.00 | 0.00 | 0.00 | 52 | 1003.3 |
| 20260510010016 | 19 | 321 | 0.0 | 4.8 | 0.00 | 0.00 | 0.00 | 50 | 1003.0 |
| 20260510004546 | 20 | 319 | 0.0 | 8.0 | 0.00 | 0.00 | 0.00 | 50 | 1002.8 |
| 20260510003016 | 20 | 337 | 1.6 | 4.8 | 0.00 | 0.00 | 0.00 | 49 | 1002.9 |
| 20260510001547 | 21 | 317 | 3.2 | 6.4 | 0.00 | 0.00 | 0.00 | 47 | 1002.8 |
| 20260510000019 | 21 | 309 | 1.6 | 9.7 | 0.00 | 0.00 | 0.00 | 46 | 1002.6 |
| 20260509234550 | 22 | 322 | 4.8 | 19.3 | 0.00 | 0.00 | 0.00 | 44 | 1002.4 |
| 20260509233021 | 22 | 239 | 4.8 | 14.5 | 0.00 | 0.00 | 0.00 | 44 | 1002.2 |
| 20260509231553 | 23 | 332 | 4.8 | 11.3 | 0.00 | 0.00 | 0.00 | 44 | 1002.0 |
| 20260509230019 | 23 | 359 | 3.2 | 12.9 | 0.00 | 0.00 | 0.00 | 45 | 1001.8 |
| 20260509224548 | 23 | 319 | 6.4 | 14.5 | 0.00 | 0.00 | 0.00 | 45 | 1001.8 |
| 20260509223017 | 23 | 333 | 8.0 | 20.9 | 0.00 | 0.00 | 0.00 | 43 | 1001.9 |
| 20260509221551 | 23 | 219 | 3.2 | 12.9 | 0.00 | 0.00 | 0.00 | 45 | 1001.8 |
| 20260509220015 | 23 | 335 | 6.4 | 19.3 | 0.00 | 0.00 | 0.00 | 42 | 1001.7 |
| 20260509214558 | 23 | 211 | 8.0 | 14.5 | 0.00 | 0.00 | 0.00 | 43 | 1001.6 |
| 20260509213005 | 23 | 278 | 1.6 | 17.7 | 0.00 | 0.00 | 0.00 | 51 | 1001.5 |
| 20260509211530 | 23 | 226 | 3.2 | 11.3 | 0.00 | 0.00 | 0.00 | 54 | 1001.5 |
| 20260509210100 | 23 | 148 | 8.0 | 17.7 | 0.00 | 0.00 | 0.00 | 53 | 1001.3 |
| 20260509204526 | 22 | 233 | 1.6 | 11.3 | 0.00 | 0.00 | 0.00 | 53 | 1001.4 |
| 20260509203055 | 22 | 288 | 4.8 | 14.5 | 0.00 | 0.00 | 0.00 | 52 | 1001.5 |
| 20260509201523 | 23 | 250 | 1.6 | 12.9 | 0.00 | 0.00 | 0.00 | 51 | 1001.5 |
| 20260509200108 | 23 | 258 | 0.0 | 17.7 | 0.00 | 0.00 | 0.00 | 50 | 1001.5 |
| 20260509194532 | 23 | 238 | 0.0 | 8.0 | 0.00 | 0.00 | 0.00 | 50 | 1001.6 |
| 20260509193053 | 23 | 151 | 3.2 | 16.1 | 0.00 | 0.00 | 0.00 | 51 | 1001.5 |
| 20260509191515 | 23 | 98 | 3.2 | 11.3 | 0.00 | 0.00 | 0.00 | 50 | 1001.8 |
| 20260509190039 | 22 | 207 | 1.6 | 16.1 | 0.00 | 0.00 | 0.00 | 51 | 1001.9 |
| 20260509184504 | 22 | 227 | 1.6 | 12.9 | 0.00 | 0.00 | 0.00 | 53 | 1002.0 |
| 20260509183030 | 22 | 203 | 4.8 | 19.3 | 0.00 | 0.00 | 0.00 | 54 | 1002.2 |
| 20260509181554 | 22 | 150 | 6.4 | 20.9 | 0.00 | 0.00 | 0.00 | 57 | 1002.4 |
| 20260509180016 | 21 | 233 | 6.4 | 24.1 | 0.00 | 0.00 | 0.00 | 59 | 1002.8 |
| 20260509174551 | 21 | 195 | 9.7 | 25.7 | 0.00 | 0.00 | 0.00 | 57 | 1002.8 |
| 20260509173016 | 21 | 229 | 12.9 | 20.9 | 0.00 | 0.00 | 0.00 | 57 | 1002.7 |
| 20260509171543 | 21 | 226 | 11.3 | 25.7 | 0.00 | 0.00 | 0.00 | 59 | 1002.9 |
| 20260509164524 | 20 | 176 | 4.8 | 17.7 | 0.00 | 0.00 | 0.00 | 61 | 1003.5 |
| 20260509163101 | 20 | 151 | 4.8 | 19.3 | 0.00 | 0.00 | 0.00 | 63 | 1003.7 |
| 20260509161526 | 20 | 214 | 6.4 | 17.7 | 0.00 | 0.00 | 0.00 | 65 | 1003.7 |
| 20260509160043 | 19 | 223 | 8.0 | 22.5 | 0.00 | 0.00 | 0.00 | 65 | 1003.6 |
| 20260509154508 | 19 | 98 | 3.2 | 14.5 | 0.00 | 0.00 | 0.00 | 66 | 1003.8 |
| 20260509153047 | 19 | 197 | 6.4 | 16.1 | 0.00 | 0.00 | 0.00 | 65 | 1004.1 |
| 20260509151510 | 19 | 215 | 3.2 | 12.9 | 0.00 | 0.00 | 0.00 | 66 | 1003.9 |
| 20260509150039 | 18 | 143 | 3.2 | 14.5 | 0.00 | 0.00 | 0.00 | 67 | 1003.9 |
| 20260509144552 | 17 | 224 | 4.8 | 14.5 | 0.00 | 0.00 | 0.00 | 69 | 1004.2 |
| 20260509143015 | 16 | 226 | 4.8 | 16.1 | 0.00 | 0.00 | 0.00 | 71 | 1004.6 |
| 20260509141537 | 16 | 236 | 1.6 | 8.0 | 0.00 | 0.00 | 0.00 | 73 | 1004.7 |